This is the latest recevied weather packets stored in our database for station/object DL1EEM-L4. If no packets are shown the sender has not sent any weather packets the latest 10 day(s).
| Time | Temp. | Humidity | Pressure | Rain* | Wind** | Luminosity | Snow |
|---|---|---|---|---|---|---|---|
| 1777808746 | 27.78° C | 35% | 1007.3 hPa | - | - | - | - |
| 1777807846 | 28.89° C | 34% | 1007.4 hPa | - | - | - | - |
| 1777806945 | 28.89° C | 33% | 1007.5 hPa | - | - | - | - |
| 1777806045 | 28.33° C | 34% | 1007.7 hPa | - | - | - | - |
| 1777805166 | 27.22° C | 36% | 1007.9 hPa | - | - | - | - |
| 1777804262 | 27.78° C | 36% | 1008 hPa | - | - | - | - |
| 1777803366 | 25° C | 44% | 1008.1 hPa | - | - | - | - |
| 1777802462 | 21.11° C | 54% | 1008.3 hPa | - | - | - | - |
| 1777801562 | 20.56° C | 56% | 1008.6 hPa | - | - | - | - |
| 1777800661 | 20° C | 58% | 1008.6 hPa | - | - | - | - |
| 1777799761 | 20° C | 58% | 1009 hPa | - | - | - | - |
| 1777798861 | 19.44° C | 58% | 1009 hPa | - | - | - | - |
| 1777797961 | 18.89° C | 60% | 1009.2 hPa | - | - | - | - |
| 1777797061 | 18.89° C | 62% | 1009.1 hPa | - | - | - | - |
| 1777796161 | 18.89° C | 65% | 1009.3 hPa | - | - | - | - |
| 1777795261 | 17.78° C | 68% | 1009.1 hPa | - | - | - | - |
| 1777794353 | 17.78° C | 68% | 1009.2 hPa | - | - | - | - |
| 1777793453 | 17.78° C | 68% | 1009.2 hPa | - | - | - | - |
| 1777792553 | 17.78° C | 69% | 1009.3 hPa | - | - | - | - |
| 1777791652 | 17.22° C | 70% | 1009.4 hPa | - | - | - | - |
| 1777790751 | 17.22° C | 69% | 1009.2 hPa | - | - | - | - |
| 1777789851 | 16.67° C | 71% | 1009.5 hPa | - | - | - | - |
| 1777788951 | 16.67° C | 72% | 1009.5 hPa | - | - | - | - |
| 1777788051 | 16.67° C | 69% | 1009.4 hPa | - | - | - | - |
| 1777787151 | 17.22° C | 66% | 1009.3 hPa | - | - | - | - |
* Rain since midnight (hover to see other rain measurements)
** Current wind speed in m/s (hover to see current wind gust speed)